Find Globalstar M100

NORAD ID: 100332 Int'l Des: 2026-185H Owner: GLOBL Country: US Constellation: globalstar operational

当前视图

正在加载3D地球...

About Globalstar M100

Globalstar M100 (NORAD 100332) is a globalstar constellation satellite launched Aug 16, 2026 by GLOBL of US. with a mass of 850.00 kg.

即将过境

Passes for default location (London). Set your location on the main map for personalized predictions.

高度历史

Loading altitude history...

两行轨道根数

1 A0332U 26185H 26255.89716444 .00000233 00000-0 80981-4 0 9991
2 A0332 51.9954 118.2252 0008597 322.3033 37.7320 14.63999989 4079
Epoch: Sep 12, 2026 • Age: 7 hours

当前状态

高度 687.9 km
远地点 / 近地点 N/A
速度 7.51 km/s
星下点 -16.52°S, 116.99°W
发射日期 Aug 16, 2026
运行时间 28 days
类型 weather

技术详情

分类 Payload
质量 850.00 kg
干质量 800.00 kg
总质量 850.00 kg
长度 1.40 m
直径 3.70 m
跨度 14.00 m
形状 Trap Cyl + 2 Pan
制造商 MDARM/RLABLB
平台类型 C-3
阶段状态 In Orbit
所有者/国家 GLOBL/US

Most Searched